This is the latest recevied weather packets stored in our database for station/object K0VSC-1. If no packets are shown the sender has not sent any weather packets the latest 10 day(s).
| Time | Temp. | Humidity | Pressure | Rain* | Wind** | Luminosity | Snow |
|---|---|---|---|---|---|---|---|
| 1776998614 | 12.78° C | 55% | 999.2 hPa | 0 mm | - | 0 W/m² | - |
| 1776998314 | 12.78° C | 52% | 999.2 hPa | 0 mm | - | 0 W/m² | - |
| 1776998014 | 13.33° C | 52% | 998.7 hPa | 0 mm | - | 0 W/m² | - |
| 1776997714 | 13.33° C | 53% | 998.6 hPa | 0 mm | - | 0 W/m² | - |
| 1776997415 | 13.89° C | 53% | 998.5 hPa | 0 mm | - | 0 W/m² | - |
| 1776997114 | 13.89° C | 55% | 998.6 hPa | 0 mm | - | 0 W/m² | - |
| 1776996814 | 13.89° C | 55% | 998.5 hPa | 0 mm | - | 0 W/m² | - |
| 1776996514 | 14.44° C | 54% | 998.3 hPa | 0 mm | - | 0 W/m² | - |
| 1776996215 | 14.44° C | 53% | 998.2 hPa | 0 mm | - | 0 W/m² | - |
| 1776995960 | 15° C | 55% | 998 hPa | 0 mm | - | 0 W/m² | - |
| 1776995915 | 15° C | 55% | 998 hPa | 0 mm | - | 0 W/m² | - |
| 1776995615 | 15° C | 52% | 997.8 hPa | 0 mm | - | 0 W/m² | - |
| 1776995315 | 15° C | 52% | 997.9 hPa | 0 mm | - | 0 W/m² | - |
| 1776995015 | 15.56° C | 52% | 997.8 hPa | 0 mm | - | 0 W/m² | - |
| 1776994715 | 15.56° C | 52% | 997.7 hPa | 0 mm | - | 0 W/m² | - |
| 1776994415 | 16.11° C | 51% | 997.6 hPa | 0 mm | - | 0 W/m² | - |
| 1776994157 | 16.11° C | 52% | 997.5 hPa | 0 mm | - | 0 W/m² | - |
| 1776994115 | 16.11° C | 52% | 997.5 hPa | 0 mm | - | 0 W/m² | - |
| 1776993815 | 16.11° C | 52% | 997.4 hPa | 0 mm | - | 0 W/m² | - |
| 1776993515 | 16.67° C | 52% | 997.2 hPa | 0 mm | - | 5 W/m² | - |
| 1776993215 | 16.67° C | 53% | 996.9 hPa | 0 mm | - | 9 W/m² | - |
| 1776992915 | 17.22° C | 53% | 996.5 hPa | 0 mm | - | 9 W/m² | - |
| 1776992615 | 17.22° C | 53% | 996.4 hPa | 0 mm | - | 7 W/m² | - |
| 1776992315 | 17.78° C | 53% | 996.2 hPa | 0 mm | - | 9 W/m² | - |
| 1776992015 | 18.33° C | 51% | 996.2 hPa | 0 mm | - | 9 W/m² | - |
* Rain latest hour (hover to see other rain measurements)
** Current wind speed in m/s (hover to see current wind gust speed)